Regional Weather Roundup
Issued by NWS Midland/Odessa, TX

Skip options and go directly to product.
Home | Oldest Version | Previous Version | Current Version | All | Text Only | Save Text | Print | Product List | Glossary Off

Skip product version selection by date and time.   

775
ASUS44 KMAF 012110
RWRMAF
MIDLAND AREA WEATHER ROUNDUP
NATIONAL WEATHER SERVICE MIDLAND TX
300 PM CST SUN FEB 01 2015

...IN SOUTHWEST TEXAS AND SOUTHEAST NEW MEXICO...

CITY           SKY/WX    TMP DP  RH WIND       PRES   REMARKS
ALPINE         MOSUNNY   54  41  60 N13G21    30.15S
ANDREWS        CLOUDY    48  36  63 NE10G20   30.13R
ARTESIA        CLOUDY    50  37  62 VRB5      30.14F
BIG SPRING     CLOUDY    53  40  61 N13G20    30.14R
CARLSBAD       CLOUDY    51  37  58 N6        30.13S
DRYDEN           N/A     63  48  58 N20G26    30.00R
FORT STOCKTON  CLOUDY    54  44  69 NE14      30.10R
GUAD PASS      CLOUDY    41  36  82 E32       30.11R WCI  29
HOBBS          NOT AVBL
MARFA          SUNNY     55  43  62 NE14      30.09R
MIDLAND AIRPK  CLOUDY    49  39  68 NE13      30.13R
MIDLAND INTL   CLOUDY    49  39  68 N16       30.12R
ODESSA         CLOUDY    49  38  65 NE17G23   30.13R
PECOS          CLOUDY    54  42  64 N9        30.12S
PRESIDIO       FAIR      66  42  41 NW6       30.02F
SEMINOLE       MOSUNNY   48  35  60 NE15G22   30.13S
SNYDER         MOSUNNY  N/A N/A N/A N16G23    30.12R
WINK           CLOUDY    53  37  54 N13       30.12R
$$
...OTHER STATIONS IN TEXAS...

CITY           SKY/WX    TMP DP  RH WIND       PRES   REMARKS
ABILENE        MOSUNNY   49  29  46 N25G35    30.11R
AMARILLO       SUNNY     40  23  50 N16G26    30.15F WCI  31
AUSTIN         PTSUNNY   70  54  56 N17       29.93R
BROWNSVILLE    CLOUDY    74  61  63 S16G22    29.88F
CORPUS CHRISTI PTSUNNY   78  59  51 SW6       29.87F
DALLAS FTW     MOSUNNY   53  35  50 N16G28    30.03R
DEL RIO        MOSUNNY   75  49  39 N10       29.93S
EL PASO        MOSUNNY   59  39  47 CALM      30.07S
HOUSTON INT    PTSUNNY   75  58  55 SW7G20    29.86F
LUBBOCK        MOSUNNY   47  30  51 N20       30.11F WCI  40
SAN ANGELO     PTSUNNY   56  43  61 N13       30.08S
SAN ANTONIO    PTSUNNY   74  54  49 N14G24    29.92R
WACO           MOSUNNY   59  45  59 NW21G29   30.00S
WICHITA FALLS  NOT AVBL
$$
...OTHER LOCATIONS IN NEW MEXICO...

CITY           SKY/WX    TMP DP  RH WIND       PRES   REMARKS
ALAMAGORDO     SUNNY     57  37  47 W5        30.06F
ALBUQUERQUE    MOSUNNY   49  29  46 NW10      30.11F
CANNON AFB     NOT AVBL
CLOVIS         SUNNY     45  28  53 N14G22    30.13R WCI  38
HOLLOMAN AFB   SUNNY     57  38  49 SW5       30.05F
ROSWELL        CLOUDY    50  34  54 VRB5      30.12F
RUIDOSO        CLOUDY    37  32  81 SE9       30.12F WCI  31
SANTA FE       MOSUNNY   40  27  59 W6        30.09F WCI  36
TRUTH OR CONSE SUNNY     54  35  48 VRB3      30.07F
TUCUMCARI      PTSUNNY   45  27  49 E9        30.11F
$$

USA.gov is the U.S. government's official web portal to all federal, state and local government web resources and services.